Location: Oso Ridge
(35.0450°N, 108.0864°W)
Time: 14:29:14
(UTC-06:00)

Amateur Radio Satellites - All Passes

Search period start: 24 July 2016 13:59
Search period end: 25 July 2016 13:59
Location: Oso Ridge, 35.0450°N, 108.0864°W

Satellite Date Start Highest point End Downlink Frequencies (MHz)
Time Altitude Azimuth
CUBEBUG 1 24 Jul 14:04:13 14:06:58 16° 292° (WNW) 14:09:42 437.445
RS-15 24 Jul 14:07:26 14:15:02 18° 22° (NNE) 14:22:39 29.354- 29.394
ITAMSAT 1 24 Jul 14:11:22 14:14:41 17° 65° (ENE) 14:18:00 435.822/435.867
SPROUT 24 Jul 14:12:15 14:16:02 30° 288° (WNW) 14:19:50 437.525
Oscar 19 24 Jul 14:21:13 14:26:09 50° 260° (W) 14:31:08 437.125/150
ITUPSAT 1 24 Jul 14:33:07 14:35:51 15° 93° (E) 14:38:34 437.325
AIST 1 24 Jul 14:47:41 14:51:38 38° 280° (W) 14:55:37
AO-7 24 Jul 15:00:48 15:08:09 36° 62° (ENE) 15:15:31 29.400- 29.500
GONETS M04 24 Jul 15:13:16 15:20:29 31° 85° (E) 15:27:42
Gurwin Techsat 1B 24 Jul 15:16:50 15:21:38 35° 262° (W) 15:26:29 435.225
TISAT 1 24 Jul 15:19:24 15:22:47 23° 290° (WNW) 15:26:09 437.305
AO-85 24 Jul 15:22:50 15:28:08 54° 302° (WNW) 15:33:15 145.980
SWISSCUBE 24 Jul 15:26:19 15:31:06 69° 103° (ESE) 15:35:48 437.505
BEESAT 24 Jul 15:48:04 15:52:51 77° 284° (WNW) 15:57:35 436.000
ITAMSAT 1 24 Jul 15:48:36 15:53:41 52° 260° (W) 15:58:48 435.822/435.867
DANDE 24 Jul 16:01:15 16:03:26 23° 79° (E) 16:05:45 436.750
Cosmos 2499 24 Jul 16:01:48 16:10:10 48° 89° (E) 16:18:28 435.465 / 435.565
CUSAT 1 24 Jul 16:06:29 16:09:20 43° 262° (W) 16:12:48 437.405
ITUPSAT 1 24 Jul 16:09:19 16:13:52 46° 287° (WNW) 16:18:24 437.325
RS-15 24 Jul 16:19:36 16:31:35 51° 52° (NE) 16:43:19 29.354- 29.394
KKS-1 24 Jul 16:43:23 16:47:42 44° 100° (E) 16:51:59 437.445
AO-7 24 Jul 16:52:42 17:00:38 47° 259° (WSW) 17:08:38 29.400- 29.500
MOZHAYETS 4 24 Jul 16:55:47 17:00:20 68° 101° (E) 17:04:51
HORYU 2 24 Jul 17:02:14 17:06:30 46° 73° (ENE) 17:10:48 437.375
SWISSCUBE 24 Jul 17:06:58 17:08:14 11° 297° (WNW) 17:09:30 437.505
GONETS M04 24 Jul 17:08:30 17:16:50 50° 282° (WNW) 17:25:14
NOAA 18 24 Jul 17:19:22 17:21:48 13° 61° (ENE) 17:24:16 137.9125
STARS 24 Jul 17:30:12 17:34:39 75° 102° (ESE) 17:39:05 437.465
NOAA 15 24 Jul 17:36:28 17:40:36 24° 67° (ENE) 17:44:44 137.62
Cosmos 2499 24 Jul 17:55:34 18:03:23 34° 286° (WNW) 18:11:11 435.465 / 435.565
BRITE-PL 24 Jul 17:57:36 18:01:28 37° 74° (ENE) 18:05:18 437.365/2234.400
CUBESAT XI-V 24 Jul 18:07:07 18:11:31 44° 99° (E) 18:15:56 437.345
PHONESAT 2.4 24 Jul 18:08:44 18:11:40 42° 151° (SSE) 18:14:38 2401.200-2431.200
Cubesat XI-IV 24 Jul 18:20:30 18:25:38 47° 72° (ENE) 18:30:47 437.490
KKS-1 24 Jul 18:21:20 18:23:51 15° 294° (WNW) 18:26:22 437.445
SO-50 24 Jul 18:23:39 18:28:13 63° 58° (ENE) 18:32:39 436.795
RS-15 24 Jul 18:32:29 18:43:55 47° 252° (WSW) 18:55:09 29.354- 29.394
MOZHAYETS 4 24 Jul 18:36:24 18:36:52 10° 296° (WNW) 18:37:20
LilacSat-2 24 Jul 18:37:36 18:41:25 66° 76° (ENE) 18:45:17 437.200
HORYU 2 24 Jul 18:41:03 18:43:15 13° 267° (W) 18:45:28 437.375
CUTE-I 24 Jul 18:44:51 18:50:13 83° 76° (ENE) 18:55:37 437.470
NOAA 18 24 Jul 18:56:14 19:01:44 76° 257° (WSW) 19:07:18 137.9125
BEESAT 3 24 Jul 19:11:10 19:14:52 43° 115° (ESE) 19:18:37 437.485
BEESAT 2 24 Jul 19:12:12 19:15:14 22° 111° (ESE) 19:18:18 435.950
GOMX 1 24 Jul 19:14:26 19:18:31 62° 259° (W) 19:22:42 467.674
NOAA 15 24 Jul 19:15:22 19:20:09 36° 262° (W) 19:24:57 137.62
DOVE 4 24 Jul 19:21:48 19:25:57 63° 75° (ENE) 19:30:17 437.250
HO-68 24 Jul 19:33:36 19:40:00 36° 66° (ENE) 19:46:24 435.675
BRITE-PL 24 Jul 19:38:05 19:40:07 13° 267° (W) 19:42:08 437.365/2234.400
PHONESAT 2.4 24 Jul 19:45:16 19:48:13 40° 346° (NNW) 19:51:09 2401.200-2431.200
CUBESAT XI-V 24 Jul 19:45:50 19:48:30 15° 293° (WNW) 19:51:10 437.345
SEEDS 24 Jul 19:48:13 19:51:05 18° 69° (ENE) 19:53:57 437.485
CINEMA 3 24 Jul 19:54:18 19:58:23 39° 72° (ENE) 20:02:40 145.822/145.860
Cubesat XI-IV 24 Jul 20:02:15 20:05:53 18° 266° (W) 20:09:33 437.490
STRAND 1 24 Jul 20:03:58 20:08:50 43° 99° (E) 20:13:39 437.568
COMPASS 1 24 Jul 20:05:14 20:08:13 19° 69° (ENE) 20:11:12 437.405
SO-50 24 Jul 20:07:04 20:08:02 11° 254° (WSW) 20:09:02 436.795
PCSat 24 Jul 20:21:56 20:27:21 88° 115° (ESE) 20:32:48 145.827
CANX-2 24 Jul 20:23:45 20:28:02 82° 77° (ENE) 20:32:20 2200.000
Oscar 11 24 Jul 20:26:28 20:26:54 10° 65° (ENE) 20:27:21 145.826/435.025
AAUSAT CUBESAT 2 24 Jul 20:35:32 20:39:17 34° 73° (ENE) 20:43:03 437.432
CUTE 1.7 + AOD 2 24 Jul 20:37:45 20:42:02 78° 258° (WSW) 20:46:20 437.475
O/OREOS (USA 219) 24 Jul 20:42:18 20:45:37 21° 101° (E) 20:48:57 437.305
PRISM 24 Jul 20:44:26 20:45:39 11° 93° (E) 20:46:52 437.425
Cosmos 2491 24 Jul 20:44:50 20:48:56 14° 78° (ENE) 20:53:01 435.465 / 435.565
BEESAT 2 24 Jul 20:49:35 20:52:55 25° 306° (NW) 20:56:16 435.950
BEESAT 3 24 Jul 20:50:32 20:52:45 14° 311° (NW) 20:54:59 437.485
AIST 2 24 Jul 20:51:14 20:52:13 11° 107° (ESE) 20:53:11 435.215
UWE-3 24 Jul 21:04:01 21:08:19 45° 73° (ENE) 21:12:44 435.000/436.395/437.385
ZACube-1 24 Jul 21:11:16 21:15:20 35° 72° (ENE) 21:19:28 437.345
ISS 24 Jul 21:11:46 21:13:07 12° 127° (SE) 21:14:28 145.825
FUNcube-1 24 Jul 21:11:59 21:16:00 33° 72° (ENE) 21:20:05 145.935
AUBIESAT-1 24 Jul 21:17:51 21:20:04 15° 62° (ENE) 21:22:23 437.475
YUBILEINY 24 Jul 21:18:41 21:27:14 50° 78° (ENE) 21:35:40 435.215
CUBEBUG 2 24 Jul 21:19:57 21:24:26 78° 258° (WSW) 21:29:07 437.445
HO-68 24 Jul 21:21:00 21:27:33 38° 261° (W) 21:34:11 435.675
PHONESAT 2.4 24 Jul 21:22:24 21:25:08 28° 3° (N) 21:27:52 2401.200-2431.200
SEEDS 24 Jul 21:22:44 21:26:31 31° 263° (W) 21:30:19 437.485
DELFI C3 24 Jul 21:22:52 21:25:37 18° 70° (ENE) 21:28:22 145.870
CINEMA 3 24 Jul 21:33:01 21:35:42 16° 268° (W) 21:38:28 145.822/145.860
COMPASS 1 24 Jul 21:39:56 21:43:34 28° 263° (W) 21:47:12 437.405
STRAND 1 24 Jul 21:44:05 21:47:38 19° 294° (WNW) 21:51:11 437.568
Oscar 11 24 Jul 21:58:09 22:02:27 62° 259° (W) 22:06:47 145.826/435.025
PCSat 24 Jul 22:09:01 22:11:27 13° 313° (NW) 22:13:54 145.827
AAUSAT CUBESAT 2 24 Jul 22:12:19 22:14:49 16° 266° (W) 22:17:21 437.432
PRISM 24 Jul 22:17:15 22:21:09 45° 286° (WNW) 22:25:04 437.425
TIGRISAT 24 Jul 22:20:47 22:22:16 11° 91° (E) 22:23:45 435.000
O/OREOS (USA 219) 24 Jul 22:20:54 22:24:48 29° 296° (WNW) 22:28:43 437.305
M-CUBED/EXP-1 PRIME 24 Jul 22:22:03 22:25:35 61° 255° (WSW) 22:29:27 437.505
AIST 2 24 Jul 22:26:11 22:30:10 53° 301° (WNW) 22:34:13 435.215
UNISAT 6 24 Jul 22:34:41 22:37:54 18° 94° (E) 22:41:04 437.425
Cosmos 2491 24 Jul 22:35:42 22:44:25 89° 99° (E) 22:53:11 435.465 / 435.565
UWE-3 24 Jul 22:42:34 22:44:59 14° 268° (W) 22:47:26 435.000/436.395/437.385
ESTCUBE 1 24 Jul 22:44:54 22:47:09 14° 66° (ENE) 22:49:23 437.505/2401.250
ISS 24 Jul 22:46:03 22:49:12 49° 321° (NW) 22:52:23 145.825
ZACube-1 24 Jul 22:48:34 22:51:40 18° 266° (W) 22:54:50 437.345
FUNcube-1 24 Jul 22:49:03 22:52:15 19° 266° (W) 22:55:31 145.935
HUMSAT D 24 Jul 22:49:35 22:53:52 82° 256° (WSW) 22:58:13 437.325/437.525
Cosmos 2504 24 Jul 22:50:40 22:58:47 64° 81° (E) 23:06:15 435.465 / 435.565
AUBIESAT-1 24 Jul 22:50:55 22:54:12 32° 259° (WSW) 22:57:43 437.475
DELFI C3 24 Jul 22:56:50 23:00:15 27° 263° (W) 23:03:39 145.870
PHONESAT 2.4 24 Jul 22:58:54 23:01:58 61° 20° (NNE) 23:05:00 2401.200-2431.200
ANTELSAT 24 Jul 23:12:14 23:16:45 49° 99° (E) 23:21:08 437.575/2403.000
VELOX 1 24 Jul 23:12:43 23:15:19 16° 67° (ENE) 23:17:54 145.980
YUBILEINY 24 Jul 23:16:11 23:23:33 31° 276° (W) 23:30:55 435.215
CUBEBUG 1 24 Jul 23:20:20 23:23:35 21° 69° (ENE) 23:26:51 437.445
50 SAT 24 Jul 23:29:14 23:32:05 21° 71° (ENE) 23:34:55 437.505
QB50P2 24 Jul 23:32:59 23:34:17 11° 92° (E) 23:35:34 145.880/145.840
POLYITAN 1 24 Jul 23:35:30 23:36:57 11° 92° (E) 23:38:23 437.675
TIGRISAT 24 Jul 23:54:43 23:59:17 56° 286° (WNW) 00:03:43 435.000
AISAT 24 Jul 23:55:20 23:59:33 51° 74° (ENE) 00:03:49 437.250
AO-85 24 Jul 23:58:26 00:02:40 51° 57° (ENE) 00:06:34 145.980
DX 1 25 Jul 00:04:38 00:08:44 44° 73° (ENE) 00:12:51 434.975-435.025
UNISAT 6 25 Jul 00:10:27 00:14:40 35° 289° (WNW) 00:18:49 437.425
NANOSAT C BR1 25 Jul 00:19:00 00:22:59 37° 98° (E) 00:26:55 145.865
ESTCUBE 1 25 Jul 00:19:09 00:23:30 48° 260° (W) 00:27:51 437.505/2401.250
UKube-1 25 Jul 00:23:15 00:27:27 58° 75° (ENE) 00:31:41 .
DUCHIFAT 1 25 Jul 00:24:34 00:28:36 40° 99° (E) 00:32:35 145.980
TISAT 1 25 Jul 00:33:58 00:35:43 12° 66° (ENE) 00:37:28 437.305
PHONESAT 2.4 25 Jul 00:35:50 00:38:18 22° 214° (SSW) 00:40:45 2401.200-2431.200
Cosmos 2491 25 Jul 00:37:29 00:42:23 16° 294° (WNW) 00:47:19 435.465 / 435.565
QB50P1 25 Jul 00:39:36 00:43:54 72° 102° (ESE) 00:48:09 145.935-145.965
JAS-2 25 Jul 00:42:27 00:46:29 21° 96° (E) 00:50:47 435.910
Cosmos 2504 25 Jul 00:45:40 00:51:14 21° 279° (W) 00:56:34 435.465 / 435.565
POPSAT HIP 1 25 Jul 00:45:47 00:50:06 84° 103° (ESE) 00:54:22 437.405
VELOX 1 25 Jul 00:47:18 00:51:25 40° 261° (W) 00:55:33 145.980
BUGSAT 1 25 Jul 00:50:16 00:54:09 34° 98° (E) 00:58:00 437.445
ANTELSAT 25 Jul 00:50:32 00:52:58 14° 295° (WNW) 00:55:22 437.575/2403.000
CUBEBUG 1 25 Jul 00:56:02 00:59:41 27° 263° (W) 01:03:22 437.445
AIST 1 25 Jul 00:57:44 01:01:42 34° 79° (E) 01:05:40
SPROUT 25 Jul 01:01:47 01:05:59 62° 259° (W) 01:10:14 437.525
50 SAT 25 Jul 01:02:57 01:05:37 19° 264° (W) 01:08:17 437.505
QB50P2 25 Jul 01:06:10 01:10:20 50° 286° (WNW) 01:14:27 145.880/145.840
POLYITAN 1 25 Jul 01:08:49 01:12:59 49° 286° (WNW) 01:17:06 437.675
GONETS M04 25 Jul 01:30:05 01:32:36 11° 62° (ENE) 01:35:05
AISAT 25 Jul 01:34:51 01:36:17 11° 268° (W) 01:37:43 437.250
ITUPSAT 1 25 Jul 01:37:35 01:39:50 13° 64° (ENE) 01:42:06 437.325
AO-85 25 Jul 01:41:46 01:42:27 10° 254° (WSW) 01:43:07 145.980
DX 1 25 Jul 01:43:09 01:45:06 13° 267° (W) 01:47:05 434.975-435.025
NANOSAT C BR1 25 Jul 01:55:46 01:58:22 16° 292° (WNW) 02:00:57 145.865
Gurwin Techsat 1B 25 Jul 01:58:37 02:00:41 12° 91° (E) 02:02:45 435.225
DUCHIFAT 1 25 Jul 02:01:31 02:03:55 15° 293° (WNW) 02:06:17 145.980
Cosmos 2499 25 Jul 02:02:03 02:03:47 11° 62° (ENE) 02:05:28 435.465 / 435.565
TISAT 1 25 Jul 02:06:53 02:10:55 47° 260° (W) 02:14:58 437.305
BUGSAT 1 25 Jul 02:26:26 02:29:13 17° 292° (WNW) 02:32:00 437.445
JAS-2 25 Jul 02:26:46 02:31:39 39° 288° (WNW) 02:36:54 435.910
SWISSCUBE 25 Jul 02:29:22 02:34:02 54° 74° (ENE) 02:38:42 437.505
Oscar 19 25 Jul 02:35:44 02:40:55 75° 103° (ESE) 02:46:05 437.125/150
AIST 1 25 Jul 02:36:21 02:38:57 16° 273° (W) 02:41:34
JUGNU 25 Jul 02:39:43 02:42:03 12° 167° (SSE) 02:44:24 437.505
BEESAT 25 Jul 02:50:54 02:55:41 84° 78° (ENE) 03:00:29 436.000
AO-7 25 Jul 03:10:04 03:11:56 11° 90° (E) 03:13:47 29.400- 29.500
ITUPSAT 1 25 Jul 03:12:24 03:17:08 58° 259° (WSW) 03:21:53 437.325
GONETS M04 25 Jul 03:22:12 03:31:00 72° 82° (E) 03:39:48
CUSAT 1 25 Jul 03:26:38 03:28:51 13° 95° (E) 03:30:51 437.405
BEESAT 3 25 Jul 03:33:20 03:34:26 11° 47° (NE) 03:35:33 437.485
Gurwin Techsat 1B 25 Jul 03:35:46 03:41:03 68° 286° (WNW) 03:46:18 435.225
KKS-1 25 Jul 03:38:32 03:42:16 27° 70° (ENE) 03:46:02 437.445
Cosmos 2499 25 Jul 03:50:31 03:58:24 77° 83° (E) 04:05:40 435.465 / 435.565
MOZHAYETS 4 25 Jul 03:54:12 03:58:35 43° 73° (ENE) 04:02:59
ITAMSAT 1 25 Jul 04:04:35 04:09:48 74° 103° (ESE) 04:14:57 435.822/435.867
SWISSCUBE 25 Jul 04:09:56 04:12:05 13° 267° (W) 04:14:15 437.505
Oscar 19 25 Jul 04:17:43 04:19:33 12° 297° (WNW) 04:21:23 437.125/150
STARS 25 Jul 04:23:32 04:27:40 42° 72° (ENE) 04:31:49 437.465
JUGNU 25 Jul 04:26:30 04:30:20 18° 177° (S) 04:34:08 437.505
SRMSAT 25 Jul 04:52:00 04:54:05 12° 166° (SSE) 04:56:09 437.500
AO-7 25 Jul 04:57:26 05:05:49 75° 106° (ESE) 05:14:06 29.400- 29.500
HORYU 2 25 Jul 04:58:52 05:00:10 11° 92° (E) 05:01:27 437.375
DANDE 25 Jul 05:03:56 05:10:21 73° 97° (E) 05:15:09 436.750
CUSAT 1 25 Jul 05:06:30 05:10:46 33° 279° (W) 05:14:09 437.405
CUBESAT XI-V 25 Jul 05:07:22 05:11:23 30° 71° (ENE) 05:15:24 437.345
BEESAT 3 25 Jul 05:08:35 05:12:30 64° 244° (WSW) 05:16:24 437.485
BEESAT 2 25 Jul 05:09:44 05:13:42 63° 60° (ENE) 05:17:39 435.950
PCSat 25 Jul 05:13:22 05:18:19 35° 57° (ENE) 05:23:14 145.827
KKS-1 25 Jul 05:15:19 05:18:46 22° 264° (W) 05:22:15 437.445
ISS 25 Jul 05:16:16 05:19:20 38° 38° (NE) 05:22:24 145.825
GONETS M04 25 Jul 05:20:55 05:26:52 21° 279° (W) 05:32:50
MOZHAYETS 4 25 Jul 05:33:13 05:35:55 15° 267° (W) 05:38:36
Cosmos 2499 25 Jul 05:46:15 05:50:19 15° 281° (W) 05:54:18 435.465 / 435.565
ITAMSAT 1 25 Jul 05:46:39 05:48:34 12° 298° (WNW) 05:50:31 435.822/435.867
NOAA 15 25 Jul 05:57:04 05:58:12 11° 91° (E) 05:59:20 137.62
STARS 25 Jul 06:01:54 06:04:10 14° 267° (W) 06:06:28 437.465
BRITE-PL 25 Jul 06:04:55 06:08:18 18° 95° (E) 06:11:50 437.365/2234.400
JUGNU 25 Jul 06:15:06 06:18:36 16° 187° (S) 06:22:06 437.505
HORYU 2 25 Jul 06:32:37 06:37:00 54° 286° (WNW) 06:41:20 437.375
SRMSAT 25 Jul 06:38:42 06:42:29 17° 176° (S) 06:46:15 437.500
RS-15 25 Jul 06:39:09 06:49:24 42° 106° (ESE) 07:00:06 29.354- 29.394
Cubesat XI-IV 25 Jul 06:41:38 06:45:57 25° 96° (E) 06:50:13 437.490
CUBESAT XI-V 25 Jul 06:45:11 06:48:44 22° 265° (W) 06:52:18 437.345
AIST 2 25 Jul 06:50:32 06:54:21 34° 56° (NE) 06:58:10 435.215
DANDE 25 Jul 06:51:34 06:53:00 11° 285° (WNW) 06:54:21 436.750
AO-7 25 Jul 06:51:41 06:57:43 23° 303° (WNW) 07:03:44 29.400- 29.500
ISS 25 Jul 06:53:29 06:55:31 16° 232° (SW) 06:57:32 145.825
O/OREOS (USA 219) 25 Jul 06:54:41 06:58:25 25° 63° (ENE) 07:02:09 437.305
PCSat 25 Jul 06:57:01 07:01:31 27° 253° (WSW) 07:05:59 145.827
CUTE-I 25 Jul 07:05:28 07:10:32 43° 99° (E) 07:15:34 437.470
STRAND 1 25 Jul 07:16:31 07:21:24 45° 72° (ENE) 07:26:16 437.568
GOMX 1 25 Jul 07:18:06 07:23:01 50° 100° (E) 07:28:12 467.674
NOAA 18 25 Jul 07:21:41 07:27:11 61° 102° (ESE) 07:32:37 137.9125
DOVE 4 25 Jul 07:23:30 07:27:48 26° 96° (E) 07:32:10 437.250
NOAA 15 25 Jul 07:33:10 07:38:26 74° 285° (WNW) 07:43:41 137.62
BRITE-PL 25 Jul 07:42:18 07:46:49 42° 286° (WNW) 07:51:40 437.365/2234.400
LilacSat-2 25 Jul 07:48:24 07:52:09 49° 285° (WNW) 07:55:51 437.200
CINEMA 3 25 Jul 07:53:27 07:56:06 14° 91° (E) 07:58:44 145.822/145.860
CANX-2 25 Jul 08:13:08 08:15:58 17° 94° (E) 08:18:48 2200.000
Cubesat XI-IV 25 Jul 08:21:12 08:26:01 35° 290° (WNW) 08:30:49 437.490
CUTE 1.7 + AOD 2 25 Jul 08:26:39 08:29:56 22° 95° (E) 08:33:11 437.475
SRMSAT 25 Jul 08:27:21 08:30:55 16° 187° (S) 08:34:29 437.500
AIST 2 25 Jul 08:29:46 08:32:33 17° 250° (WSW) 08:35:20 435.215
O/OREOS (USA 219) 25 Jul 08:33:57 08:37:43 26° 258° (WSW) 08:41:29 437.305
SO-50 25 Jul 08:34:14 08:38:52 45° 114° (ESE) 08:43:31 436.795
CUTE-I 25 Jul 08:46:21 08:50:14 21° 294° (WNW) 08:54:07 437.470
RS-15 25 Jul 08:50:20 09:01:25 54° 307° (NW) 09:13:12 29.354- 29.394
Cosmos 2491 25 Jul 08:50:30 08:58:30 38° 75° (ENE) 09:06:29 435.465 / 435.565
HO-68 25 Jul 08:51:33 08:58:32 51° 101° (E) 09:05:27 435.675
STRAND 1 25 Jul 08:57:16 09:00:44 18° 266° (W) 09:04:12 437.568
GOMX 1 25 Jul 08:57:26 09:00:44 18° 292° (WNW) 09:04:08 467.674
UWE-3 25 Jul 08:59:07 09:00:56 12° 91° (E) 09:02:44 435.000/436.395/437.385
DOVE 4 25 Jul 09:00:51 09:05:25 33° 289° (WNW) 09:10:05 437.250
PRISM 25 Jul 09:02:58 09:07:02 77° 75° (ENE) 09:11:07 437.425
NOAA 18 25 Jul 09:03:57 09:07:15 16° 297° (WNW) 09:10:33 137.9125
SEEDS 25 Jul 09:09:21 09:13:25 50° 100° (E) 09:17:26 437.485
CUBEBUG 2 25 Jul 09:14:33 09:18:40 29° 96° (E) 09:22:40 437.445
COMPASS 1 25 Jul 09:25:20 09:29:23 53° 100° (E) 09:33:24 437.405
CINEMA 3 25 Jul 09:28:35 09:33:30 55° 286° (WNW) 09:38:21 145.822/145.860
UNISAT 6 25 Jul 09:31:47 09:33:31 12° 64° (ENE) 09:35:18 437.425
CANX-2 25 Jul 09:48:09 09:51:51 31° 288° (WNW) 09:55:32 2200.000
Oscar 11 25 Jul 09:48:56 09:52:42 29° 97° (E) 09:56:26 145.826/435.025
AAUSAT CUBESAT 2 25 Jul 09:55:50 09:59:57 80° 283° (WNW) 10:04:02 437.432
CUTE 1.7 + AOD 2 25 Jul 10:02:15 10:05:41 25° 289° (WNW) 10:09:05 437.475
M-CUBED/EXP-1 PRIME 25 Jul 10:05:20 10:07:49 14° 97° (E) 10:10:18 437.505
ANTELSAT 25 Jul 10:07:46 10:11:45 30° 71° (ENE) 10:15:48 437.575/2403.000
YUBILEINY 25 Jul 10:14:57 10:23:33 64° 92° (E) 10:32:14 435.215
SO-50 25 Jul 10:15:54 10:19:33 21° 310° (NW) 10:23:12 436.795
AUBIESAT-1 25 Jul 10:32:19 10:36:01 23° 100° (E) 10:39:40 437.475
UWE-3 25 Jul 10:33:12 10:37:42 52° 285° (WNW) 10:42:03 435.000/436.395/437.385
DELFI C3 25 Jul 10:37:00 10:40:47 44° 99° (E) 10:44:32 145.870
HUMSAT D 25 Jul 10:37:15 10:40:19 20° 95° (E) 10:43:20 437.325/437.525
ZACube-1 25 Jul 10:38:40 10:43:10 71° 283° (WNW) 10:47:31 437.345
FUNcube-1 25 Jul 10:38:57 10:43:27 76° 283° (WNW) 10:47:48 145.935
HO-68 25 Jul 10:39:58 10:45:50 28° 297° (WNW) 10:51:41 435.675
Cosmos 2491 25 Jul 10:47:18 10:55:15 41° 273° (W) 11:03:14 435.465 / 435.565
SEEDS 25 Jul 10:47:22 10:48:37 11° 294° (WNW) 10:49:53 437.485
TIGRISAT 25 Jul 10:49:23 10:53:58 84° 76° (ENE) 10:58:39 435.000
CUBEBUG 2 25 Jul 10:51:21 10:55:05 24° 291° (WNW) 10:58:45 437.445
COMPASS 1 25 Jul 11:03:43 11:04:25 10° 294° (WNW) 11:05:07 437.405
UNISAT 6 25 Jul 11:05:07 11:09:38 61° 260° (W) 11:14:16 437.425
NANOSAT C BR1 25 Jul 11:08:44 11:11:40 19° 68° (ENE) 11:14:37 145.865
RS-15 25 Jul 11:10:13 11:17:42 18° 337° (NNW) 11:25:23 29.354- 29.394
DUCHIFAT 1 25 Jul 11:13:56 11:16:59 20° 69° (ENE) 11:20:04 145.980
Cosmos 2504 25 Jul 11:22:52 11:31:26 60° 91° (E) 11:40:07 435.465 / 435.565
Oscar 11 25 Jul 11:25:28 11:28:37 20° 291° (WNW) 11:31:45 145.826/435.025
QB50P1 25 Jul 11:28:52 11:32:41 33° 72° (ENE) 11:36:31 145.935-145.965
POPSAT HIP 1 25 Jul 11:34:58 11:38:53 39° 73° (ENE) 11:42:52 437.405
M-CUBED/EXP-1 PRIME 25 Jul 11:37:57 11:42:31 53° 290° (WNW) 11:47:04 437.505
BUGSAT 1 25 Jul 11:38:04 11:40:27 15° 68° (ENE) 11:42:53 437.445
ANTELSAT 25 Jul 11:44:50 11:48:25 22° 265° (W) 11:52:05 437.575/2403.000
AISAT 25 Jul 11:50:31 11:52:28 13° 93° (E) 11:54:26 437.250
QB50P2 25 Jul 11:55:01 11:59:15 77° 75° (ENE) 12:03:31 145.880/145.840
POLYITAN 1 25 Jul 11:57:38 12:01:53 79° 75° (ENE) 12:06:10 437.675
AUBIESAT-1 25 Jul 12:06:18 12:10:24 32° 294° (WNW) 12:14:29 437.475
HUMSAT D 25 Jul 12:12:21 12:15:54 27° 289° (WNW) 12:19:23 437.325/437.525
DELFI C3 25 Jul 12:13:58 12:15:12 11° 293° (WNW) 12:16:26 145.870
YUBILEINY 25 Jul 12:14:09 12:20:54 24° 290° (WNW) 12:27:45 435.215
ESTCUBE 1 25 Jul 12:14:45 12:19:02 43° 99° (E) 12:23:17 437.505/2401.250
UKube-1 25 Jul 12:15:31 12:17:19 12° 93° (E) 12:19:07 .
50 SAT 25 Jul 12:33:45 12:37:08 39° 99° (E) 12:40:30 437.505
JAS-2 25 Jul 12:34:52 12:41:03 57° 73° (ENE) 12:46:33 435.910
VELOX 1 25 Jul 12:40:15 12:44:32 46° 100° (E) 12:48:49 145.980
NANOSAT C BR1 25 Jul 12:43:25 12:47:09 30° 263° (W) 12:50:54 145.865
CUBEBUG 1 25 Jul 12:46:52 12:51:15 67° 101° (ESE) 12:55:38 437.445
DUCHIFAT 1 25 Jul 12:48:50 12:52:28 28° 263° (W) 12:56:08 145.980
SPROUT 25 Jul 12:51:16 12:54:59 27° 97° (E) 12:58:40 437.525
QB50P1 25 Jul 13:05:50 13:08:31 16° 266° (W) 13:11:13 145.935-145.965
BUGSAT 1 25 Jul 13:11:49 13:15:31 34° 262° (W) 13:19:17 437.445
POPSAT HIP 1 25 Jul 13:12:34 13:14:49 14° 267° (W) 13:17:05 437.405
Gurwin Techsat 1B 25 Jul 13:16:19 13:19:23 16° 64° (ENE) 13:22:27 435.225
Cosmos 2504 25 Jul 13:18:03 13:25:15 27° 288° (WNW) 13:32:32 435.465 / 435.565
AIST 1 25 Jul 13:24:08 13:27:29 23° 89° (E) 13:30:50
AISAT 25 Jul 13:24:52 13:29:09 48° 286° (WNW) 13:33:27 437.250
RS-15 25 Jul 13:31:05 13:37:38 15° 15° (NNE) 13:44:13 29.354- 29.394
DX 1 25 Jul 13:31:45 13:36:04 59° 285° (WNW) 13:40:21 434.975-435.025
UKube-1 25 Jul 13:49:25 13:53:34 46° 287° (WNW) 13:57:42 .
ESTCUBE 1 25 Jul 13:52:52 13:55:27 15° 293° (WNW) 13:58:02 437.505/2401.250
